SCP
1 3 4 5 7 7 6 4 1 2 0 0 0 0 0 -0 -0 0 0 0 0 0
4 3 4 5 12 9 6 8 4 3 1 0 0 0 0 0 0 0 0 0 0 0
4 4 4 7 10 10 9 7 5 4 3 2 0 0 0 0 0 0 0 0 0 0
1 3 5 7 8 9 7 7 5 5 5 3 0 0 0 0 0 0 0 0 0 0
0 0 3 5 5 6 6 6 5 6 4 2 1 0 0 0 0 0 0 0 0 0
0 0 1 3 4 4 3 4 2 3 2 1 1 0 0 0 0 0 0 0 0 0
-1 -0 0 2 3 2 2 4 3 2 2 2 1 0 0 0 0 0 0 0 0 0
0 -0 0 1 2 1 2 2 2 2 3 2 1 1 0 0 0 0 0 0 0 0
1 1 1 0 1 1 1 2 2 2 3 2 1 0 0 0 0 0 0 0 0 0
1 1 0 1 2 1 1 2 2 3 2 2 2 0 0 0 0 0 0 0 0 0
0 0 1 1 2 2 3 3 3 3 3 2 2 0 0 0 0 0 0 0 0 0
0 0 0 0 1 2 2 3 2 2 2 1 1 0 0 0 0 0 0 0 0 0
0 0 0 0 1 2 2 1 1 1 1 1 0 0 0 0 0 0 0 0 0 0
0 0 0 0 1 1 1 1 0 0 0 0 0 0 0 0 0 0 0 0 0 0
Wind_Speed_500mb
131 129 128 118 98 104 113 88 92 84 81 66 69 60 54 64 68 68 66 58 43 30
109 115 115 109 104 111 118 104 96 111 92 71 73 67 56 62 67 70 67 57 55 40
88 90 100 98 97 105 103 102 113 118 95 87 82 76 60 64 70 72 69 65 61 53
74 80 85 95 92 97 93 106 109 113 102 101 95 87 70 67 73 76 75 65 61 56
50 56 71 78 81 84 93 93 106 95 106 106 98 94 81 71 74 79 74 69 59 55
40 46 61 65 70 76 76 82 74 83 103 104 100 96 90 77 73 71 72 72 67 61
40 42 46 57 66 69 70 76 76 81 92 99 101 90 89 85 90 81 77 76 73 69
37 47 51 53 62 58 68 78 78 77 88 96 99 96 101 89 94 95 92 82 76 78
42 44 51 55 56 64 69 72 77 85 88 97 100 99 104 90 94 92 84 78 77 74
42 42 48 55 58 61 65 71 81 90 91 100 101 97 96 91 89 90 71 81 76 71
51 45 38 50 58 61 58 71 83 91 98 103 102 96 92 93 90 86 85 80 78 83
55 52 47 49 61 61 70 64 79 91 97 102 103 97 94 95 99 88 84 85 80 87
57 51 53 50 56 71 66 66 77 89 95 100 102 99 99 94 101 93 86 85 86 91
58 48 52 51 49 63 77 72 75 82 92 98 97 101 104 94 98 89 80 93 98 95
Wind_Direction_500mb
249 246 244 239 226 224 240 230 226 237 241 241 230 239 248 232 238 229 233 231 216 212
253 252 239 233 227 230 240 232 234 234 238 231 231 237 244 230 229 226 226 225 224 213
253 256 252 233 225 226 230 229 233 233 235 227 229 231 232 221 224 223 224 223 224 214
247 247 247 241 228 225 228 232 241 237 231 225 229 231 229 219 225 220 222 220 223 214
255 247 241 237 228 227 225 232 247 241 228 225 228 232 227 222 215 218 218 219 219 215
264 251 243 238 231 227 226 227 225 231 229 225 226 231 231 222 207 211 215 219 219 217
275 257 246 242 234 231 228 227 225 223 226 226 228 228 229 216 213 214 213 217 220 217
296 275 258 244 239 239 231 227 226 218 222 226 228 227 229 219 219 219 216 214 214 220
313 294 270 252 243 237 235 233 224 222 219 224 225 228 233 222 218 213 215 210 215 217
320 304 289 271 251 240 234 236 228 223 225 227 227 230 233 221 221 217 206 218 220 213
316 304 283 279 270 254 249 241 232 225 226 230 229 231 232 218 217 218 219 220 220 223
311 307 298 273 270 268 245 246 240 233 225 227 228 228 228 214 212 217 220 221 221 222
314 303 297 288 273 265 267 258 243 231 226 225 228 228 226 217 210 208 212 222 219 219
315 307 302 291 275 268 264 263 253 239 233 227 231 229 222 204 209 208 212 218 219 215
Wind_Speed_850mb
131 129 128 118 98 104 113 88 92 84 81 66 69 60 54 64 68 68 66 58 43 30
109 115 115 109 104 111 118 104 96 111 92 71 73 67 56 62 67 70 67 57 55 40
88 90 100 98 97 105 103 102 113 118 95 87 82 76 60 64 70 72 69 65 61 53
74 80 85 95 92 97 93 106 109 113 102 101 95 87 70 67 73 76 75 65 61 56
50 56 71 78 81 84 93 93 106 95 106 106 98 94 81 71 74 79 74 69 59 55
40 46 61 65 70 76 76 82 74 83 103 104 100 96 90 77 73 71 72 72 67 61
40 42 46 57 66 69 70 76 76 81 92 99 101 90 89 85 90 81 77 76 73 69
37 47 51 53 62 58 68 78 78 77 88 96 99 96 101 89 94 95 92 82 76 78
42 44 51 55 56 64 69 72 77 85 88 97 100 99 104 90 94 92 84 78 77 74
42 42 48 55 58 61 65 71 81 90 91 100 101 97 96 91 89 90 71 81 76 71
51 45 38 50 58 61 58 71 83 91 98 103 102 96 92 93 90 86 85 80 78 83
55 52 47 49 61 61 70 64 79 91 97 102 103 97 94 95 99 88 84 85 80 87
57 51 53 50 56 71 66 66 77 89 95 100 102 99 99 94 101 93 86 85 86 91
58 48 52 51 49 63 77 72 75 82 92 98 97 101 104 94 98 89 80 93 98 95
Wind_Direction_850mb
249 246 244 239 226 224 240 230 226 237 241 241 230 239 248 232 238 229 233 231 216 212
253 252 239 233 227 230 240 232 234 234 238 231 231 237 244 230 229 226 226 225 224 213
253 256 252 233 225 226 230 229 233 233 235 227 229 231 232 221 224 223 224 223 224 214
247 247 247 241 228 225 228 232 241 237 231 225 229 231 229 219 225 220 222 220 223 214
255 247 241 237 228 227 225 232 247 241 228 225 228 232 227 222 215 218 218 219 219 215
264 251 243 238 231 227 226 227 225 231 229 225 226 231 231 222 207 211 215 219 219 217
275 257 246 242 234 231 228 227 225 223 226 226 228 228 229 216 213 214 213 217 220 217
296 275 258 244 239 239 231 227 226 218 222 226 228 227 229 219 219 219 216 214 214 220
313 294 270 252 243 237 235 233 224 222 219 224 225 228 233 222 218 213 215 210 215 217
320 304 289 271 251 240 234 236 228 223 225 227 227 230 233 221 221 217 206 218 220 213
316 304 283 279 270 254 249 241 232 225 226 230 229 231 232 218 217 218 219 220 220 223
311 307 298 273 270 268 245 246 240 233 225 227 228 228 228 214 212 217 220 221 221 222
314 303 297 288 273 265 267 258 243 231 226 225 228 228 226 217 210 208 212 222 219 219
315 307 302 291 275 268 264 263 253 239 233 227 231 229 222 204 209 208 212 218 219 215